This demonstration page uses our WeatherBlox Daily Observations layout. Learn more.

Left ArrowRight Arrow

36.17497, -115.13722

Hourly Observations for March 14, 2015

Temp ( °F °C ) Dew Point ( °F °C ) Humidity (%) Winds ( mph kmh ) Pressure ( in mb ) Visibility ( mi km ) Precip ( " mm )
12:53 am 00:53 Clear 63 17.2 28 -2.2 27 27 Calm 30.18 1022 10 16 0.00 0.00
1:53 am 01:53 Clear 60 15.6 30 -1.1 32 32 WNW 3 6 30.19 1023 10 16 0.00 0.00
2:53 am 02:53 Clear 58 14.4 31 -0.6 36 36 NW 6 9 30.20 1023 10 16 0.00 0.00
3:53 am 03:53 Clear 58 14.4 31 -0.6 36 36 WNW 6 9 30.19 1023 10 16 0.00 0.00
4:53 am 04:53 Clear 59 15 29 -1.7 32 32 W 6 9 30.21 1023 10 16 0.00 0.00
5:53 am 05:53 Clear 56 13.3 31 -0.6 39 39 SSE 3 6 30.22 1024 10 16 0.00 0.00
6:53 am 06:53 Sunny 57 13.9 31 -0.6 37 37 WNW 5 7 30.23 1024 10 16 0.00 0.00
7:53 am 07:53 Sunny 58 14.4 33 0.6 39 39 NNW 5 7 30.25 1025 10 16 0.00 0.00
8:53 am 08:53 Sunny 64 17.8 32 0 30 30 Calm 30.27 1025 10 16 0.00 0.00
9:53 am 09:53 Sunny 70 21.1 29 -1.7 22 22 Calm 30.26 1025 10 16 0.00 0.00
10:53 am 10:53 Sunny 73 22.8 29 -1.7 19 19 Calm 30.25 1024 10 16 0.00 0.00
11:53 am 11:53 Sunny 76 24.4 28 -2.2 17 17 ESE 6 9 30.23 1024 10 16 0.00 0.00
12:53 pm 12:53 Sunny 76 24.4 28 -2.2 17 17 Calm 30.21 1023 10 16 0.00 0.00
1:53 pm 13:53 Sunny 77 25 27 -2.8 16 16 Calm 30.18 1022 10 16 0.00 0.00
2:53 pm 14:53 Sunny 79 26.1 27 -2.8 15 15 E 6 9 30.14 1021 10 16 0.00 0.00
3:53 pm 15:53 Sunny 79 26.1 25 -3.9 14 14 Calm 30.14 1021 10 16 0.00 0.00
4:53 pm 16:53 Sunny 80 26.7 25 -3.9 13 13 Calm 30.12 1020 10 16 0.00 0.00
5:53 pm 17:53 Sunny 79 26.1 25 -3.9 14 14 ESE 3 6 30.11 1020 10 16 0.00 0.00
6:53 pm 18:53 Clear 77 25 25 -3.9 14 14 S 3 6 30.12 1020 10 16 0.00 0.00
7:53 pm 19:53 Clear 75 23.9 27 -2.8 17 17 W 3 6 30.13 1020 10 16 0.00 0.00
8:53 pm 20:53 Clear 70 21.1 32 0 25 25 NW 7 11 30.15 1021 10 16 0.00 0.00
9:53 pm 21:53 Clear 68 20 33 0.6 27 27 WNW 6 9 30.15 1021 10 16 0.00 0.00
10:53 pm 22:53 Clear 65 18.3 33 0.6 31 31 NW 6 9 30.16 1021 10 16 0.00 0.00
11:53 pm 23:53 Clear 63 17.2 34 1.1 34 34 N 3 6 30.16 1021 10 16 0.00 0.00

Powered by AerisWeather